Location: Ethel Rock
(53.4667°N, 4.5667°W)
Time: 05:27:11
(UTC+00:00)

H-2A R/B - Pass Details

Date: 24 October 2020
Orbit: 500 x 540 km, 97.3° (Epoch: 22 November)

Event Time Altitude Azimuth Distance (km) Brightness Sun altitude
Rises 06:19:24 0° 12° (NNE) 2,634 6.3 -7.1°
Reaches altitude 10° 06:21:30 10° 12° (NNE) 1,749 5.4 -6.8°
Maximum altitude 06:25:16 81° 285° (WNW) 531 2.7 -6.2°
Drops below altitude 10° 06:29:04 10° 199° (SSW) 1,757 5.3 -5.7°
Sets 06:31:10 0° 198° (SSW) 2,648 6.3 -5.4°
